Location: Fort Wayne
(41.1310°N, 85.1290°W)
Time: 03:41:36
(UTC-05:00)

Cosmos 1980 - Visible Passes

Search period start: 01 February 2015 00:00
Search period end: 11 February 2015 00:00
Orbit: 839 x 848 km, 71.0° (Epoch: 30 January)

Date Brightness Start Highest point End Pass type
(mag) Time Alt. Az. Time Alt. Az. Time Alt. Az.
02 Feb 5.2 07:13:23 10° N 07:18:32 35° ENE 07:23:41 10° ESE visible
03 Feb 5.3 06:58:57 10° N 07:04:02 34° ENE 07:09:09 10° ESE visible
04 Feb 5.3 06:44:30 10° N 06:49:33 32° NE 06:54:37 10° ESE visible
05 Feb 5.4 06:30:05 10° N 06:35:03 31° NE 06:40:04 10° ESE visible
06 Feb 5.4 06:15:38 10° N 06:20:33 30° NE 06:25:31 10° ESE visible
07 Feb 5.5 06:01:13 10° N 06:06:04 29° NE 06:10:59 10° ESE visible
08 Feb 5.5 05:46:47 10° N 05:51:34 28° NE 05:56:26 10° ESE visible
08 Feb 6.0 20:37:44 10° S 20:38:02 11° S 20:38:02 11° S visible
09 Feb 5.6 05:32:22 10° N 05:37:05 27° NE 05:41:52 10° ESE visible
09 Feb 5.1 20:23:19 10° S 20:25:32 24° S 20:25:32 24° S visible
10 Feb 5.6 05:17:56 10° N 05:22:35 26° NE 05:27:19 10° ESE visible
10 Feb 4.0 07:01:32 10° NW 07:06:58 48° WSW 07:12:20 10° S visible
10 Feb 4.1 20:08:54 10° S 20:13:08 43° SE 20:13:08 43° SE visible
10 Feb 6.2 21:54:02 10° WSW 21:55:07 14° WSW 21:55:07 14° WSW visible
